TimeCST,TemperatureF,Dew PointF,Humidity,Sea Level PressureIn,VisibilityMPH,Wind Direction,Wind SpeedMPH,Gust SpeedMPH,PrecipitationIn,Events,Conditions,WindDirDegrees,DateUTC
12:15 AM,8.6,3.2,79,30.14,10.0,Calm,Calm,-,N/A,,Clear,0,2013-03-03 06:15:00
12:35 AM,10.4,5.0,79,30.13,10.0,Calm,Calm,-,N/A,,Clear,0,2013-03-03 06:35:00
12:55 AM,10.4,3.2,73,30.14,10.0,Calm,Calm,-,N/A,,Clear,0,2013-03-03 06:55:00
1:15 AM,8.6,3.2,79,30.13,10.0,Calm,Calm,-,N/A,,Clear,0,2013-03-03 07:15:00
1:35 AM,6.8,3.2,85,30.13,10.0,Calm,Calm,-,N/A,,Clear,0,2013-03-03 07:35:00
1:55 AM,5.0,1.4,85,30.13,10.0,NE,3.5,-,N/A,,Clear,50,2013-03-03 07:55:00
2:15 AM,5.0,1.4,85,30.12,10.0,Calm,Calm,-,N/A,,Clear,0,2013-03-03 08:15:00
2:35 AM,3.2,-0.4,85,30.12,10.0,Calm,Calm,-,N/A,,Clear,0,2013-03-03 08:35:00
2:55 AM,3.2,-0.4,85,30.11,10.0,Calm,Calm,-,N/A,,Clear,0,2013-03-03 08:55:00
3:15 AM,3.2,-0.4,85,30.11,10.0,Calm,Calm,-,N/A,,Clear,0,2013-03-03 09:15:00
3:35 AM,1.4,-0.4,92,30.11,10.0,Calm,Calm,-,N/A,,Clear,0,2013-03-03 09:35:00
3:55 AM,3.2,-0.4,85,30.11,10.0,ENE,3.5,-,N/A,,Clear,70,2013-03-03 09:55:00
4:15 AM,-0.4,-4.0,85,30.12,10.0,Calm,Calm,-,N/A,,Clear,0,2013-03-03 10:15:00
4:35 AM,1.4,-4.0,78,30.11,10.0,ENE,4.6,-,N/A,,Clear,70,2013-03-03 10:35:00
4:55 AM,3.2,-0.4,85,30.11,10.0,ENE,4.6,-,N/A,,Clear,70,2013-03-03 10:55:00
5:15 AM,3.2,-0.4,85,30.11,10.0,East,5.8,-,N/A,,Clear,80,2013-03-03 11:15:00
5:35 AM,1.4,-0.4,92,30.11,10.0,ENE,5.8,-,N/A,,Clear,70,2013-03-03 11:35:00
5:55 AM,3.2,-0.4,85,30.11,10.0,East,4.6,-,N/A,,Clear,80,2013-03-03 11:55:00
6:15 AM,3.2,-0.4,85,30.12,10.0,ENE,3.5,-,N/A,,Scattered Clouds,70,2013-03-03 12:15:00
6:35 AM,5.0,-0.4,78,30.12,10.0,East,3.5,-,N/A,,Mostly Cloudy,80,2013-03-03 12:35:00
6:55 AM,5.0,-0.4,78,30.12,10.0,Calm,Calm,-,N/A,,Overcast,0,2013-03-03 12:55:00
7:15 AM,5.0,-0.4,78,30.12,10.0,East,4.6,-,N/A,,Overcast,80,2013-03-03 13:15:00
7:35 AM,5.0,-0.4,78,30.12,10.0,East,4.6,-,N/A,,Overcast,80,2013-03-03 13:35:00
7:55 AM,8.6,1.4,73,30.12,10.0,East,3.5,-,N/A,,Overcast,90,2013-03-03 13:55:00
8:15 AM,8.6,3.2,79,30.11,10.0,Calm,Calm,-,N/A,,Overcast,0,2013-03-03 14:15:00
8:35 AM,10.4,3.2,73,30.12,10.0,Calm,Calm,-,N/A,,Overcast,0,2013-03-03 14:35:00
8:55 AM,12.2,3.2,67,30.12,10.0,SE,5.8,-,N/A,,Overcast,140,2013-03-03 14:55:00
9:15 AM,14.0,5.0,67,30.12,10.0,SE,6.9,-,N/A,,Overcast,130,2013-03-03 15:15:00
9:35 AM,15.8,5.0,62,30.11,10.0,SE,9.2,-,N/A,,Overcast,130,2013-03-03 15:35:00
9:55 AM,17.6,5.0,58,30.12,10.0,SE,5.8,-,N/A,,Mostly Cloudy,130,2013-03-03 15:55:00
10:15 AM,17.6,5.0,58,30.11,10.0,SE,8.1,-,N/A,,Scattered Clouds,140,2013-03-03 16:15:00
10:35 AM,19.4,3.2,49,30.11,10.0,SE,9.2,-,N/A,,Clear,130,2013-03-03 16:35:00
10:55 AM,19.4,3.2,49,30.10,10.0,SE,6.9,-,N/A,,Clear,130,2013-03-03 16:55:00
11:15 AM,21.2,3.2,46,30.10,10.0,ESE,5.8,-,N/A,,Clear,120,2013-03-03 17:15:00
11:35 AM,21.2,3.2,46,30.10,10.0,SE,5.8,-,N/A,,Clear,140,2013-03-03 17:35:00
11:55 AM,23.0,1.4,39,30.09,10.0,ESE,4.6,-,N/A,,Clear,120,2013-03-03 17:55:00
12:15 PM,23.0,1.4,39,30.08,10.0,SSE,5.8,-,N/A,,Clear,150,2013-03-03 18:15:00
12:35 PM,26.6,-0.4,31,30.08,10.0,ESE,5.8,-,N/A,,Clear,120,2013-03-03 18:35:00
12:55 PM,26.6,1.4,34,30.07,10.0,SE,5.8,-,N/A,,Clear,130,2013-03-03 18:55:00
1:15 PM,26.6,-0.4,31,30.06,10.0,SE,8.1,-,N/A,,Clear,140,2013-03-03 19:15:00
1:55 PM,28.4,3.2,34,30.04,10.0,SE,8.1,-,N/A,,Clear,140,2013-03-03 19:55:00
2:15 PM,28.4,1.4,31,30.03,10.0,SE,6.9,-,N/A,,Clear,140,2013-03-03 20:15:00
2:35 PM,28.4,1.4,31,30.03,10.0,ESE,6.9,-,N/A,,Clear,120,2013-03-03 20:35:00
2:55 PM,28.4,1.4,31,30.03,10.0,SE,5.8,-,N/A,,Clear,140,2013-03-03 20:55:00
3:15 PM,28.4,-0.4,29,30.02,10.0,SE,6.9,-,N/A,,Clear,130,2013-03-03 21:15:00
3:55 PM,28.4,3.2,34,30.02,10.0,SSE,5.8,-,N/A,,Clear,160,2013-03-03 21:55:00
4:15 PM,28.4,6.8,40,30.01,10.0,South,4.6,-,N/A,,Clear,170,2013-03-03 22:15:00
4:35 PM,28.4,3.2,34,30.01,10.0,SSE,4.6,-,N/A,,Clear,160,2013-03-03 22:35:00
4:55 PM,28.4,3.2,34,30.01,10.0,South,3.5,-,N/A,,Clear,170,2013-03-03 22:55:00
5:15 PM,26.6,5.0,40,30.01,10.0,Calm,Calm,-,N/A,,Clear,0,2013-03-03 23:15:00
5:55 PM,24.8,3.2,40,30.01,10.0,SSE,3.5,-,N/A,,Clear,150,2013-03-03 23:55:00
6:15 PM,24.8,3.2,40,30.01,10.0,SE,3.5,-,N/A,,Clear,140,2013-03-04 00:15:00
6:35 PM,24.8,3.2,40,30.01,10.0,SE,3.5,-,N/A,,Clear,140,2013-03-04 00:35:00
6:55 PM,23.0,3.2,43,30.01,10.0,Calm,Calm,-,N/A,,Clear,0,2013-03-04 00:55:00
7:15 PM,23.0,1.4,39,30.02,10.0,SE,3.5,-,N/A,,Clear,140,2013-03-04 01:15:00
7:35 PM,21.2,1.4,42,30.02,10.0,Calm,Calm,-,N/A,,Clear,0,2013-03-04 01:35:00
7:55 PM,21.2,1.4,42,30.02,10.0,Calm,Calm,-,N/A,,Clear,0,2013-03-04 01:55:00
8:15 PM,21.2,1.4,42,30.02,10.0,Calm,Calm,-,N/A,,Clear,0,2013-03-04 02:15:00
8:35 PM,17.6,3.2,53,30.02,10.0,Calm,Calm,-,N/A,,Clear,0,2013-03-04 02:35:00
8:55 PM,17.6,3.2,53,30.02,10.0,East,3.5,-,N/A,,Clear,80,2013-03-04 02:55:00
9:15 PM,19.4,1.4,46,30.01,10.0,East,3.5,-,N/A,,Clear,80,2013-03-04 03:15:00
9:35 PM,19.4,1.4,46,30.01,10.0,East,3.5,-,N/A,,Clear,80,2013-03-04 03:35:00
9:55 PM,17.6,-0.4,45,30.02,10.0,ENE,5.8,-,N/A,,Clear,70,2013-03-04 03:55:00
10:15 PM,17.6,-2.2,42,30.01,10.0,East,5.8,-,N/A,,Clear,80,2013-03-04 04:15:00
10:35 PM,19.4,-5.8,33,30.01,10.0,East,5.8,-,N/A,,Clear,100,2013-03-04 04:35:00
10:55 PM,19.4,-7.6,30,30.01,10.0,East,8.1,-,N/A,,Clear,90,2013-03-04 04:55:00
11:15 PM,21.2,-7.6,28,30.01,10.0,East,6.9,-,N/A,,Clear,100,2013-03-04 05:15:00
11:35 PM,19.4,-7.6,30,30.01,10.0,East,5.8,-,N/A,,Clear,90,2013-03-04 05:35:00
11:55 PM,19.4,-7.6,30,30.01,10.0,East,4.6,-,N/A,,Clear,90,2013-03-04 05:55:00